Regional Weather Roundup
Issued by NWS

Home | Current Version | Previous Version | Text Only | Print | Product List | Glossary Off
Versions: 1 2 3 4 5 6 7 8 9 10 11 12 13 14 15 16 17 18 19 20 21 22 23 24 25 26 27 28 29 30 31 32 33 34 35 36 37 38 39 40 41 42 43 44 45 46 47 48 49 50

000
ASUS43 KFSD 261202
RWRSD

WEATHER ROUNDUP FOR SOUTH DAKOTA
NATIONAL WEATHER SERVICE SIOUX FALLS SD
600 AM CST MON JAN 26 2015

NOTE: "FAIR" INDICATES FEW OR NO CLOUDS BELOW 12,000 FEET WITH NO
SIGNIFICANT WEATHER AND/OR OBSTRUCTIONS TO VISIBILITY.


SDZ001>005-009-010-012>017-261300-
NORTHWEST AND NORTH CENTRAL SOUTH DAKOTA

CITY           SKY/WX    TMP DP  RH WIND       PRES   REMARKS
BUFFALO          N/A     38  30  73 W9        29.89S
FAITH            N/A     42  30  62 W22       29.92R
MOBRIDGE       MOCLDY    38  34  85 NW8       29.84R
$$

SDZ012>016-024>037-041>051-057-063-072>074-261300-
SOUTHWEST AND SOUTH CENTRAL SOUTH DAKOTA

CITY           SKY/WX    TMP DP  RH WIND       PRES   REMARKS
RAPID CTY ARPT CLEAR     48  28  46 NW6       29.98S
PIERRE         CLEAR     38  33  82 W13       29.89R
CUSTER         CLEAR     40  25  55 W7        30.06S
ELLSWORTH AFB  CLEAR     51  29  42 NW15      29.97S
PHILIP         CLEAR     44  31  60 W13       29.94R
PINE RIDGE     CLEAR     39  29  67 CALM      30.04S
WINNER         FAIR      45  33  63 W15       29.91R
$$

SDZ004>011-016>023-039-040-261300-
NORTHEAST SOUTH DAKOTA

CITY           SKY/WX    TMP DP  RH WIND       PRES   REMARKS
ABERDEEN       CLEAR     35  30  82 NW8       29.80R WCI  29
WATERTOWN      PTCLDY    34  30  85 W9        29.74F WCI  27
SISSETON         N/A     38  33  82 NW18      29.71R
$$

SDZ017-020-022-023-036>040-048>070-261300-
SOUTHEAST SOUTH DAKOTA

CITY           SKY/WX    TMP DP  RH WIND       PRES   REMARKS
SIOUX FALLS    MOCLDY    33  30  88 W3        29.79R
HURON          CLEAR     35  32  88 NW12      29.82R WCI  27
MITCHELL       CLEAR     37  32  82 W12       29.84R
YANKTON        CLEAR     39  30  70 SW10      29.82S
$$

ABBREVIATIONS USED IN REMARKS
   TC - TEMPERATURE IN CELSIUS
  WCI - WIND CHILL INDEX
   HX - HEAT INDEX
  VSB - VISIBILITY




USA.gov is the U.S. government's official web portal to all federal, state and local government web resources and services.